Location: West Chester
(39.9610°N, 75.6060°W)
Time: 19:17:11
(UTC-04:00)

ARIANE 6 FM1 Upper Stage - Pass Details

Date: 25 September 2024
Orbit: 563 x 594 km, 62.0° (Epoch: 11 October)

Event Time Altitude Azimuth Distance (km) Brightness Sun altitude
Rises 19:20:53 0° 220° (SW) 2,762 6.8 -6.1°
Reaches altitude 10° 19:23:06 10° 223° (SW) 1,874 5.9 -6.5°
Maximum altitude 19:27:19 70° 307° (NW) 618 3.1 -7.3°
Drops below altitude 10° 19:31:37 10° 32° (NNE) 1,907 5.1 -8.1°
Sets 19:33:54 0° 34° (NE) 2,817 5.9 -8.5°
